Terminal Aerodrome Forecast
Issued by NWS Bismarck, ND

Home | Current Version | Previous Version | Graphics & Text | Print | Product List | Glossary On
Versions: 1 2 3 4 5 6 7 8 9 10 11 12 13
000
FTUS43 KBIS 131700
TAFISN
TAF
KISN 131724Z 1318/1418 31018G26KT P6SM SCT035 BKN050
     FM140200 33007KT P6SM SCT070
     FM140800 VRB03KT P6SM SCT250=

USA.gov is the U.S. government's official web portal to all federal, state and local government web resources and services.